Weather History for Lawrenceville, IL

Change the Weather History Date:

Saturday, October 20, 2012

  Actual Average Record
Temperature  
Mean Temperature 50 °F 56 °F  
Max Temperature 55 °F 68 °F 84 °F (2003)
Min Temperature 45 °F 45 °F 27 °F (1992)
Degree Days  
Heating Degree Days 15 9  
Month to date heating degree days 201 136  
Since 1 July heating degree days 266 175  
Cooling Degree Days 0 1  
Month to date cooling degree days 3 30  
Year to date cooling degree days 1695 1384  
Moisture  
Dew Point 44 °F    
Average Humidity 77    
Maximum Humidity 93    
Minimum Humidity 61    
Precipitation  
Precipitation 0.00 in 0.13 in 3.70 in (1985)
Month to date precipitation 2.86 2.73  
Year to date precipitation 26.53 35.27  
Sea Level Pressure  
Sea Level Pressure 29.90 in    
Wind  
Wind Speed 5 mph (SW)    
Max Wind Speed 12 mph    
Max Gust Speed 15 mph    
Visibility 9 miles    
Events      
T = Trace of Precipitation, MM = Missing Value Source: NWS Daily Summary

Daily Weather History Graph

Daily Weather History Graph

Search for Another Location

Airport:

Trip Planner

Search our weather history database for the weather conditions in past years. The results will help you decide how hot, cold, wet, or windy it might be!

Date:

Astronomy

Oct. 20, 2012 Rise Set
Actual Time 7:05 AM CDT 6:04 PM CDT
Civil Twilight 6:38 AM CDT 6:31 PM CDT
Nautical Twilight 6:07 AM CDT 7:02 PM CDT
Astronomical Twilight 5:36 AM CDT 7:33 PM CDT
Moon 12:39 PM CDT (10/20) 10:51 PM CDT (10/20)
Length of Visible Light 11h 53m
Length of Day
10h 59m
Waxing Crescent, 34% of the Moon is Illuminated
Oct 20
Waxing Crescent
Oct 21
First Quarter
Oct 29
Full
Nov 6
Last Quarter
Nov 13
New

Hourly Weather History & Observations

Time (CDT) Temp. Dew Point Humidity Pressure Visibility Wind Dir Wind Speed Gust Speed Precip Events Conditions
12:27 AM 48.2 °F 44.6 °F 87% 29.77 in 10.0 mi WSW 6.9 mph - N/A   Overcast
12:53 AM 48.9 °F 44.1 °F 83% 29.78 in 10.0 mi WSW 5.8 mph - N/A   Overcast
1:53 AM 50.0 °F 44.1 °F 80% 29.79 in 10.0 mi WSW 8.1 mph - N/A   Overcast
2:53 AM 48.9 °F 44.1 °F 83% 29.79 in 10.0 mi WSW 9.2 mph - N/A   Overcast
3:53 AM 48.0 °F 43.0 °F 83% 29.79 in 10.0 mi WSW 8.1 mph - N/A   Scattered Clouds
4:26 AM 48.2 °F 44.6 °F 87% 29.80 in 10.0 mi WSW 5.8 mph - N/A   Overcast
4:53 AM 48.0 °F 44.1 °F 86% 29.81 in 10.0 mi WSW 5.8 mph - N/A   Overcast
5:53 AM 48.9 °F 44.1 °F 83% 29.82 in 10.0 mi WSW 8.1 mph - N/A   Overcast
6:53 AM 48.9 °F 44.1 °F 83% 29.84 in 9.0 mi SW 5.8 mph - N/A   Overcast
7:53 AM 48.9 °F 44.1 °F 83% 29.87 in 8.0 mi WSW 4.6 mph - N/A   Overcast
8:53 AM 50.0 °F 44.1 °F 80% 29.89 in 10.0 mi West 9.2 mph - N/A   Overcast
9:53 AM 51.1 °F 43.0 °F 74% 29.91 in 10.0 mi West 8.1 mph - N/A   Overcast
10:53 AM 51.1 °F 42.1 °F 71% 29.92 in 10.0 mi West 9.2 mph - N/A   Overcast
11:53 AM 52.0 °F 42.1 °F 69% 29.93 in 10.0 mi West 8.1 mph - N/A   Overcast
12:53 PM 54.0 °F 42.1 °F 64% 29.93 in 10.0 mi WNW 6.9 mph - N/A   Overcast
1:53 PM 54.0 °F 43.0 °F 66% 29.92 in 10.0 mi West 6.9 mph - N/A   Overcast
2:53 PM 55.0 °F 44.1 °F 67% 29.92 in 10.0 mi NW 3.5 mph - N/A   Overcast
3:53 PM 55.0 °F 43.0 °F 64% 29.93 in 9.0 mi Calm Calm - N/A   Overcast
4:43 PM 53.6 °F 44.6 °F 72% 29.93 in 7.0 mi Calm Calm - N/A   Overcast
4:53 PM 54.0 °F 44.1 °F 69% 29.94 in 7.0 mi Calm Calm - N/A   Overcast
5:04 PM 55.4 °F 44.6 °F 67% 29.94 in 8.0 mi Calm Calm - N/A   Overcast
5:53 PM 54.0 °F 45.0 °F 72% 29.94 in 8.0 mi SSE 3.5 mph - N/A   Overcast
6:30 PM 53.6 °F 46.4 °F 77% 29.94 in 9.0 mi SE 3.5 mph - N/A   Overcast
6:37 PM 53.6 °F 46.4 °F 77% 29.94 in 8.0 mi SE 3.5 mph - N/A   Overcast
6:53 PM 53.1 °F 46.9 °F 80% 29.95 in 8.0 mi Calm Calm - N/A   Overcast
7:53 PM 53.1 °F 46.9 °F 80% 29.95 in 8.0 mi ESE 3.5 mph - N/A   Overcast
8:53 PM 51.1 °F 46.0 °F 83% 29.96 in 7.0 mi East 5.8 mph - N/A   Overcast
9:53 PM 48.0 °F 44.1 °F 86% 29.98 in 7.0 mi ESE 5.8 mph - N/A   Clear
10:53 PM 46.9 °F 44.1 °F 90% 29.99 in 6.0 mi ESE 6.9 mph - N/A   Clear
11:53 PM 45.0 °F 42.1 °F 90% 29.99 in 5.0 mi Calm Calm - N/A   Clear